Location: Newark
(25.7507°S, 31.4676°E)
Time: 05:53:37
(UTC+00:00)

Hubble Space Telescope - Pass Details

Date: 25 January 2020
Orbit: 536 x 540 km, 28.5° (Epoch: 27 February)

Event Time Altitude Azimuth Distance (km) Brightness Sun altitude
Rises 18:25:33 0° 283° (WNW) 2,684 5.0 -20.2°
Reaches altitude 10° 18:27:49 10° 282° (WNW) 1,795 4.0 -20.6°
Maximum altitude 18:31:59 85° 191° (SSW) 545 0.7 -21.4°
Enters shadow 18:32:37 63° 112° (ESE) 604 0.8 -21.5°
